Location: İstanbul
(41.0082°N, 28.9784°E)
Time: 21:23:46
(UTC+02:00)

Oscar 11 - Pass Details

Date: 19 October 2021
Orbit: 614 x 623 km, 97.6° (Epoch: 01 December)

Event Time Altitude Azimuth Distance (km) Brightness Sun altitude
Rises 06:12:48 0° 18° (NNE) 2,901 10.7 -13.4°
Reaches altitude 10° 06:15:04 10° 24° (NNE) 1,992 9.9 -13.0°
Maximum altitude 06:19:15 48° 99° (E) 813 8.2 -12.2°
Drops below altitude 10° 06:23:26 10° 174° (S) 1,983 9.8 -11.4°
Sets 06:25:41 0° 180° (S) 2,886 10.5 -11.0°
